MAS610 WSSS-WMKK

Flight info

Callsign MAS610
Flight time 0h 56m
Altitude 22000
Route MASBO5B MASBO A457 GUPTA GUPTA1G
Aircraft B738/M-SDE2E3FGHIRWXY/LB1

Departure

Time 2026-05-06 15:25
Airport Singapore Changi Airport (WSSS)

Arrival

Time 2026-05-06 16:22
Airport Kuala Lumpur International Airport (WMKK)
Time Latitude Longitude Altitude Speed Heading
2026-05-06 14:51 1.35093 103.99055 -4 ft 0 kts 83°
2026-05-06 15:13 1.35091 103.99040 24 ft 4 kts 83°
2026-05-06 15:13 1.35087 103.99013 27 ft 4 kts 83°
2026-05-06 15:13 1.35088 103.98988 25 ft 4 kts 108°
2026-05-06 15:14 1.35101 103.98967 27 ft 4 kts 150°
2026-05-06 15:14 1.35115 103.98962 23 ft 1 kts 173°
2026-05-06 15:14 1.35118 103.98961 23 ft 0 kts 173°
2026-05-06 15:17 1.35110 103.98962 26 ft 3 kts 173°
2026-05-06 15:17 1.35074 103.98967 25 ft 7 kts 173°
2026-05-06 15:18 1.35011 103.98974 23 ft 10 kts 173°
2026-05-06 15:18 1.34940 103.98983 23 ft 10 kts 173°
2026-05-06 15:18 1.34885 103.99018 23 ft 10 kts 118°
2026-05-06 15:18 1.34858 103.99080 23 ft 10 kts 114°
2026-05-06 15:19 1.34873 103.99137 23 ft 9 kts 34°
2026-05-06 15:19 1.34911 103.99156 24 ft 9 kts 22°
2026-05-06 15:19 1.34969 103.99181 24 ft 9 kts 22°
2026-05-06 15:19 1.35026 103.99204 25 ft 9 kts 22°
2026-05-06 15:20 1.35080 103.99227 24 ft 8 kts 22°
2026-05-06 15:20 1.35132 103.99249 26 ft 8 kts 22°
2026-05-06 15:20 1.35203 103.99279 25 ft 8 kts 22°
2026-05-06 15:20 1.35236 103.99293 26 ft 8 kts 23°
2026-05-06 15:21 1.35285 103.99314 24 ft 9 kts 23°
2026-05-06 15:21 1.35351 103.99342 26 ft 12 kts 23°
2026-05-06 15:21 1.35439 103.99380 25 ft 16 kts 23°
2026-05-06 15:21 1.35549 103.99426 23 ft 19 kts 22°
2026-05-06 15:22 1.35670 103.99477 23 ft 19 kts 22°
2026-05-06 15:22 1.35771 103.99519 24 ft 15 kts 22°
2026-05-06 15:22 1.35863 103.99558 23 ft 14 kts 22°
2026-05-06 15:22 1.35952 103.99595 25 ft 14 kts 22°
2026-05-06 15:23 1.36037 103.99631 25 ft 13 kts 23°
2026-05-06 15:23 1.36119 103.99666 25 ft 13 kts 23°
2026-05-06 15:23 1.36199 103.99699 23 ft 12 kts 22°
2026-05-06 15:23 1.36241 103.99761 23 ft 12 kts 101°
2026-05-06 15:24 1.36208 103.99837 23 ft 12 kts 115°
2026-05-06 15:24 1.36150 103.99872 23 ft 11 kts 198°
2026-05-06 15:24 1.36077 103.99841 27 ft 12 kts 203°
2026-05-06 15:24 1.35901 103.99767 23 ft 57 kts 202°
2026-05-06 15:25 1.35305 103.99516 25 ft 127 kts 202°
2026-05-06 15:25 1.34313 103.99097 88 ft 176 kts 204°
2026-05-06 15:25 1.33173 103.98562 743 ft 180 kts 206°
2026-05-06 15:25 1.32084 103.98050 1736 ft 167 kts 202°
2026-05-06 15:26 1.30979 103.97611 2387 ft 180 kts 201°
2026-05-06 15:26 1.29707 103.97101 2667 ft 211 kts 202°
2026-05-06 15:26 1.28259 103.96535 2883 ft 234 kts 194°
2026-05-06 15:26 1.26581 103.96608 3103 ft 257 kts 158°
2026-05-06 15:27 1.25187 103.97764 3660 ft 270 kts 123°
2026-05-06 15:27 1.24551 103.99515 4508 ft 273 kts 96°
2026-05-06 15:27 1.24710 104.01379 5347 ft 275 kts 76°
2026-05-06 15:27 1.25283 104.03244 6178 ft 279 kts 72°
2026-05-06 15:28 1.25881 104.05073 6924 ft 282 kts 73°
2026-05-06 15:28 1.26476 104.06980 7691 ft 285 kts 72°
2026-05-06 15:28 1.27422 104.08692 8416 ft 290 kts 48°
2026-05-06 15:28 1.29062 104.09854 9190 ft 293 kts 21°
2026-05-06 15:29 1.31073 104.10162 9932 ft 297 kts 354°
2026-05-06 15:29 1.33042 104.09484 10419 ft 311 kts 327°
2026-05-06 15:29 1.34777 104.08097 10695 ft 330 kts 319°
2026-05-06 15:29 1.36546 104.06527 11268 ft 337 kts 319°
2026-05-06 15:30 1.38293 104.05000 11949 ft 340 kts 320°
2026-05-06 15:30 1.40100 104.03452 12653 ft 343 kts 321°
2026-05-06 15:30 1.41999 104.01989 13354 ft 347 kts 322°
2026-05-06 15:30 1.43845 104.00411 14029 ft 351 kts 319°
2026-05-06 15:31 1.45667 103.98770 14681 ft 354 kts 319°
2026-05-06 15:31 1.47466 103.97065 15323 ft 359 kts 312°
2026-05-06 15:31 1.48908 103.95016 15999 ft 363 kts 300°
2026-05-06 15:32 1.51328 103.90529 17281 ft 371 kts 298°
2026-05-06 15:32 1.52538 103.88229 17900 ft 376 kts 298°
2026-05-06 15:32 1.53768 103.85908 18467 ft 380 kts 299°
2026-05-06 15:32 1.55015 103.83571 19008 ft 383 kts 299°
2026-05-06 15:33 1.56282 103.81215 19536 ft 386 kts 299°
2026-05-06 15:33 1.57560 103.78846 20144 ft 387 kts 299°
2026-05-06 15:33 1.58837 103.76487 20854 ft 385 kts 299°
2026-05-06 15:33 1.60109 103.74139 21521 ft 385 kts 300°
2026-05-06 15:34 1.61387 103.71783 21822 ft 384 kts 300°
2026-05-06 15:34 1.62664 103.69429 21882 ft 386 kts 300°
2026-05-06 15:34 1.63946 103.67066 21884 ft 386 kts 300°
2026-05-06 15:34 1.65222 103.64714 21889 ft 385 kts 300°
2026-05-06 15:35 1.66497 103.62364 21892 ft 384 kts 300°
2026-05-06 15:35 1.67771 103.60014 21890 ft 384 kts 300°
2026-05-06 15:35 1.69043 103.57668 21888 ft 384 kts 300°
2026-05-06 15:35 1.70315 103.55323 21888 ft 384 kts 300°
2026-05-06 15:36 1.71585 103.52980 21885 ft 384 kts 300°
2026-05-06 15:36 1.72860 103.50629 21884 ft 384 kts 300°
2026-05-06 15:36 1.74132 103.48283 21885 ft 384 kts 300°
2026-05-06 15:36 1.75404 103.45938 21883 ft 384 kts 300°
2026-05-06 15:37 1.76678 103.43588 21887 ft 384 kts 300°
2026-05-06 15:37 1.77951 103.41240 21885 ft 385 kts 300°
2026-05-06 15:37 1.79225 103.38889 21887 ft 385 kts 300°
2026-05-06 15:37 1.80499 103.36538 21883 ft 385 kts 300°
2026-05-06 15:38 1.81770 103.34192 21888 ft 385 kts 300°
2026-05-06 15:38 1.83049 103.31833 21885 ft 385 kts 300°
2026-05-06 15:38 1.84326 103.29477 21889 ft 385 kts 300°
2026-05-06 15:38 1.85563 103.27146 21888 ft 385 kts 298°
2026-05-06 15:39 1.86758 103.24747 21889 ft 385 kts 297°
2026-05-06 15:39 1.87930 103.22334 21889 ft 385 kts 297°
2026-05-06 15:39 1.89096 103.19924 21890 ft 385 kts 297°
2026-05-06 15:39 1.90264 103.17515 21887 ft 385 kts 297°
2026-05-06 15:40 1.91439 103.15108 21890 ft 385 kts 297°
2026-05-06 15:40 1.92616 103.12703 21891 ft 385 kts 297°
2026-05-06 15:40 1.93787 103.10314 21880 ft 380 kts 297°
2026-05-06 15:40 1.94943 103.07961 21879 ft 373 kts 297°
2026-05-06 15:41 1.96081 103.05644 21885 ft 371 kts 297°
2026-05-06 15:41 1.97218 103.03331 21894 ft 371 kts 297°
2026-05-06 15:41 1.98359 103.01010 21762 ft 374 kts 297°
2026-05-06 15:41 1.99502 102.98685 21507 ft 371 kts 297°
2026-05-06 15:42 2.00638 102.96372 21148 ft 370 kts 297°
2026-05-06 15:42 2.01767 102.94072 20806 ft 367 kts 297°
2026-05-06 15:42 2.02891 102.91785 20444 ft 365 kts 297°
2026-05-06 15:42 2.04007 102.89514 20088 ft 363 kts 297°
2026-05-06 15:43 2.05118 102.87248 19734 ft 362 kts 297°
2026-05-06 15:43 2.06216 102.84993 19365 ft 361 kts 297°
2026-05-06 15:43 2.07310 102.82737 18994 ft 360 kts 297°
2026-05-06 15:43 2.08399 102.80490 18629 ft 359 kts 297°
2026-05-06 15:44 2.09487 102.78247 18256 ft 358 kts 297°
2026-05-06 15:44 2.10573 102.76007 17850 ft 357 kts 297°
2026-05-06 15:44 2.11654 102.73779 17471 ft 355 kts 297°
2026-05-06 15:44 2.12728 102.71564 17099 ft 353 kts 297°
2026-05-06 15:45 2.13797 102.69362 16736 ft 351 kts 297°
2026-05-06 15:45 2.14857 102.67177 16380 ft 349 kts 296°
2026-05-06 15:45 2.15908 102.65011 16104 ft 344 kts 297°
2026-05-06 15:45 2.16927 102.62857 15776 ft 341 kts 295°
2026-05-06 15:46 2.17875 102.60695 15457 ft 339 kts 294°
2026-05-06 15:46 2.18794 102.58536 15132 ft 336 kts 294°
2026-05-06 15:46 2.19703 102.56391 14813 ft 334 kts 294°
2026-05-06 15:46 2.20607 102.54264 14491 ft 332 kts 294°
2026-05-06 15:47 2.21511 102.52146 14160 ft 330 kts 294°
2026-05-06 15:47 2.22414 102.50037 13837 ft 329 kts 294°
2026-05-06 15:47 2.23312 102.47944 13485 ft 327 kts 294°
2026-05-06 15:47 2.24207 102.45862 13146 ft 325 kts 294°
2026-05-06 15:48 2.25096 102.43796 12818 ft 322 kts 294°
2026-05-06 15:48 2.25978 102.41748 12493 ft 319 kts 294°
2026-05-06 15:48 2.26853 102.39714 12191 ft 317 kts 294°
2026-05-06 15:48 2.27719 102.37703 11873 ft 314 kts 293°
2026-05-06 15:49 2.28580 102.35703 11577 ft 311 kts 293°
2026-05-06 15:49 2.29433 102.33723 11276 ft 309 kts 293°
2026-05-06 15:49 2.30280 102.31757 10976 ft 307 kts 293°
2026-05-06 15:49 2.31107 102.29835 10681 ft 305 kts 293°
2026-05-06 15:50 2.31942 102.27896 10387 ft 303 kts 293°
2026-05-06 15:50 2.32773 102.25966 10095 ft 301 kts 293°
2026-05-06 15:50 2.33597 102.24053 9796 ft 299 kts 292°
2026-05-06 15:50 2.34418 102.22146 9478 ft 298 kts 292°
2026-05-06 15:51 2.35233 102.20253 9175 ft 296 kts 292°
2026-05-06 15:51 2.36043 102.18370 8870 ft 293 kts 293°
2026-05-06 15:51 2.36846 102.16504 8592 ft 291 kts 293°
2026-05-06 15:51 2.37644 102.14650 8293 ft 289 kts 293°
2026-05-06 15:52 2.38435 102.12813 8015 ft 287 kts 293°
2026-05-06 15:52 2.39221 102.10986 7738 ft 285 kts 293°
2026-05-06 15:52 2.40001 102.09174 7458 ft 283 kts 293°
2026-05-06 15:52 2.40775 102.07376 7183 ft 281 kts 293°
2026-05-06 15:53 2.41544 102.05589 6918 ft 279 kts 293°
2026-05-06 15:53 2.42309 102.03809 6646 ft 278 kts 293°
2026-05-06 15:53 2.43071 102.02040 6373 ft 276 kts 293°
2026-05-06 15:53 2.43827 102.00283 6088 ft 275 kts 293°
2026-05-06 15:54 2.44579 101.98533 5804 ft 273 kts 293°
2026-05-06 15:54 2.45327 101.96794 5531 ft 271 kts 293°
2026-05-06 15:54 2.46071 101.95066 5261 ft 270 kts 294°
2026-05-06 15:54 2.46809 101.93350 4994 ft 268 kts 294°
2026-05-06 15:55 2.47544 101.91642 4738 ft 266 kts 294°
2026-05-06 15:55 2.48340 101.89992 4521 ft 261 kts 307°
2026-05-06 15:55 2.49694 101.88881 4498 ft 247 kts 330°
2026-05-06 15:55 2.51134 101.88007 4473 ft 235 kts 329°
2026-05-06 15:56 2.52488 101.87144 4471 ft 229 kts 328°
2026-05-06 15:56 2.53813 101.86277 4477 ft 228 kts 327°
2026-05-06 15:56 2.55131 101.85403 4479 ft 226 kts 327°
2026-05-06 15:56 2.56438 101.84534 4484 ft 225 kts 327°
2026-05-06 15:57 2.57732 101.83670 4482 ft 223 kts 327°
2026-05-06 15:57 2.59022 101.82808 4490 ft 222 kts 327°
2026-05-06 15:57 2.60306 101.81948 4479 ft 221 kts 327°
2026-05-06 15:57 2.61591 101.81087 4496 ft 225 kts 327°
2026-05-06 15:58 2.62887 101.80219 4498 ft 228 kts 327°
2026-05-06 15:58 2.64223 101.79323 4494 ft 228 kts 327°
2026-05-06 15:58 2.65540 101.78440 4488 ft 227 kts 327°
2026-05-06 15:58 2.66836 101.77571 4495 ft 227 kts 327°
2026-05-06 15:59 2.68148 101.76691 4495 ft 227 kts 327°
2026-05-06 15:59 2.69475 101.75802 4489 ft 227 kts 327°
2026-05-06 15:59 2.70766 101.74935 4492 ft 226 kts 327°
2026-05-06 15:59 2.72073 101.74059 4489 ft 226 kts 327°
2026-05-06 16:00 2.73375 101.73185 4491 ft 225 kts 327°
2026-05-06 16:00 2.74678 101.72312 4497 ft 225 kts 327°
2026-05-06 16:00 2.75983 101.71435 4500 ft 226 kts 327°
2026-05-06 16:00 2.77293 101.70557 4499 ft 227 kts 327°
2026-05-06 16:01 2.78607 101.69677 4500 ft 228 kts 327°
2026-05-06 16:01 2.79924 101.68794 4496 ft 227 kts 327°
2026-05-06 16:01 2.81234 101.67916 4488 ft 227 kts 327°
2026-05-06 16:01 2.82545 101.67037 4489 ft 226 kts 327°
2026-05-06 16:02 2.83847 101.66163 4487 ft 225 kts 327°
2026-05-06 16:02 2.85150 101.65290 4489 ft 225 kts 327°
2026-05-06 16:02 2.86449 101.64419 4486 ft 224 kts 327°
2026-05-06 16:02 2.87742 101.63551 4487 ft 224 kts 327°
2026-05-06 16:03 2.89036 101.62683 4485 ft 224 kts 327°
2026-05-06 16:03 2.90343 101.61807 4500 ft 236 kts 327°
2026-05-06 16:03 2.91771 101.60851 4502 ft 253 kts 327°
2026-05-06 16:03 2.93242 101.59867 4492 ft 255 kts 327°
2026-05-06 16:04 2.94719 101.58880 4487 ft 255 kts 327°
2026-05-06 16:04 2.96207 101.57900 4486 ft 262 kts 331°
2026-05-06 16:04 2.97995 101.57452 4493 ft 272 kts
2026-05-06 16:04 2.99758 101.58101 4495 ft 274 kts 39°
2026-05-06 16:05 3.00851 101.59612 4479 ft 270 kts 73°
2026-05-06 16:05 3.00979 101.61462 4497 ft 267 kts 97°
2026-05-06 16:05 3.00445 101.63226 4483 ft 266 kts 117°
2026-05-06 16:05 2.99294 101.64666 4488 ft 267 kts 139°
2026-05-06 16:06 2.97841 101.65780 4488 ft 267 kts 143°
2026-05-06 16:06 2.96305 101.66883 4482 ft 269 kts 144°
2026-05-06 16:06 2.94781 101.67973 4483 ft 270 kts 143°
2026-05-06 16:06 2.93277 101.69056 4483 ft 271 kts 143°
2026-05-06 16:07 2.91752 101.70163 4489 ft 272 kts 143°
2026-05-06 16:07 2.90220 101.71281 4478 ft 272 kts 143°
2026-05-06 16:07 2.88693 101.72401 4483 ft 272 kts 143°
2026-05-06 16:07 2.87167 101.73521 4488 ft 272 kts 143°
2026-05-06 16:08 2.85642 101.74643 4491 ft 272 kts 143°
2026-05-06 16:08 2.84130 101.75755 4481 ft 267 kts 143°
2026-05-06 16:08 2.83125 101.76494 4481 ft 263 kts 143°
2026-05-06 16:08 2.81679 101.77559 4487 ft 262 kts 143°
2026-05-06 16:09 2.80214 101.78636 4492 ft 262 kts 143°
2026-05-06 16:09 2.78725 101.79668 4492 ft 260 kts 145°
2026-05-06 16:09 2.77223 101.80668 4491 ft 259 kts 146°
2026-05-06 16:09 2.75726 101.81662 4495 ft 258 kts 146°
2026-05-06 16:10 2.74230 101.82656 4489 ft 258 kts 146°
2026-05-06 16:10 2.72738 101.83651 4494 ft 258 kts 145°
2026-05-06 16:10 2.71247 101.84647 4492 ft 258 kts 146°
2026-05-06 16:10 2.69752 101.85648 4492 ft 259 kts 145°
2026-05-06 16:11 2.68255 101.86651 4495 ft 259 kts 145°
2026-05-06 16:11 2.66773 101.87644 4477 ft 252 kts 145°
2026-05-06 16:11 2.65351 101.88598 4477 ft 242 kts 145°
2026-05-06 16:11 2.63974 101.89519 4473 ft 234 kts 145°
2026-05-06 16:12 2.62653 101.90405 4475 ft 225 kts 145°
2026-05-06 16:12 2.61365 101.91269 4479 ft 222 kts 145°
2026-05-06 16:12 2.60081 101.92130 4483 ft 223 kts 145°
2026-05-06 16:12 2.58784 101.92999 4493 ft 227 kts 145°
2026-05-06 16:13 2.57464 101.93884 4496 ft 229 kts 145°
2026-05-06 16:13 2.56139 101.94772 4484 ft 229 kts 145°
2026-05-06 16:13 2.54804 101.95623 4475 ft 228 kts 155°
2026-05-06 16:13 2.53258 101.95856 4487 ft 227 kts 189°
2026-05-06 16:14 2.51842 101.95197 4485 ft 227 kts 221°
2026-05-06 16:14 2.50818 101.93986 4495 ft 230 kts 234°
2026-05-06 16:14 2.49922 101.92662 4483 ft 230 kts 236°
2026-05-06 16:14 2.49351 101.91198 4469 ft 228 kts 270°
2026-05-06 16:15 2.49805 101.89754 4480 ft 223 kts 310°
2026-05-06 16:15 2.50932 101.88683 4506 ft 223 kts 319°
2026-05-06 16:15 2.52110 101.87682 4497 ft 227 kts 322°
2026-05-06 16:15 2.53381 101.86736 4491 ft 228 kts 325°
2026-05-06 16:16 2.54660 101.85850 4484 ft 218 kts 327°
2026-05-06 16:16 2.55902 101.85008 4303 ft 210 kts 327°
2026-05-06 16:16 2.57102 101.84199 4065 ft 205 kts 327°
2026-05-06 16:16 2.58271 101.83410 3803 ft 200 kts 327°
2026-05-06 16:17 2.59389 101.82655 3547 ft 195 kts 327°
2026-05-06 16:17 2.60497 101.81907 3300 ft 189 kts 326°
2026-05-06 16:17 2.61574 101.81179 3066 ft 184 kts 327°
2026-05-06 16:17 2.62624 101.80470 2821 ft 180 kts 326°
2026-05-06 16:18 2.63655 101.79774 2610 ft 178 kts 326°
2026-05-06 16:18 2.64673 101.79086 2381 ft 175 kts 326°
2026-05-06 16:18 2.65678 101.78407 2167 ft 172 kts 327°
2026-05-06 16:18 2.66651 101.77751 1937 ft 166 kts 326°
2026-05-06 16:19 2.67593 101.77114 1759 ft 159 kts 327°
2026-05-06 16:19 2.68483 101.76513 1552 ft 151 kts 327°
2026-05-06 16:19 2.69341 101.75933 1376 ft 144 kts 327°
2026-05-06 16:19 2.70177 101.75369 1162 ft 146 kts 327°
2026-05-06 16:20 2.71028 101.74794 979 ft 148 kts 327°
2026-05-06 16:20 2.71874 101.74220 824 ft 145 kts 326°
2026-05-06 16:20 2.72702 101.73645 626 ft 145 kts 324°
2026-05-06 16:20 2.73533 101.73078 418 ft 143 kts 327°
2026-05-06 16:21 2.74353 101.72534 246 ft 141 kts 325°
2026-05-06 16:21 2.75152 101.71991 87 ft 132 kts 326°
2026-05-06 16:21 2.75838 101.71533 67 ft 103 kts 326°
2026-05-06 16:21 2.76312 101.71217 69 ft 51 kts 326°
2026-05-06 16:22 2.76497 101.71062 67 ft 34 kts 309°
2026-05-06 16:22 2.76570 101.70931 63 ft 12 kts 294°
2026-05-06 16:22 2.76564 101.70857 62 ft 12 kts 219°
2026-05-06 16:22 2.76491 101.70874 59 ft 12 kts 145°
2026-05-06 16:23 2.76423 101.70913 61 ft 11 kts 149°
2026-05-06 16:23 2.76361 101.70955 63 ft 11 kts 146°
2026-05-06 16:23 2.76297 101.70998 64 ft 11 kts 146°
2026-05-06 16:23 2.76230 101.71025 61 ft 10 kts 161°
2026-05-06 16:24 2.76161 101.71037 62 ft 10 kts 173°
2026-05-06 16:24 2.76093 101.71047 61 ft 10 kts 167°
2026-05-06 16:24 2.76030 101.71068 65 ft 9 kts 157°
2026-05-06 16:24 2.75974 101.71100 69 ft 9 kts 145°
2026-05-06 16:25 2.75921 101.71136 68 ft 9 kts 146°
2026-05-06 16:25 2.75865 101.71157 68 ft 9 kts 184°
2026-05-06 16:25 2.75822 101.71117 68 ft 9 kts 237°
2026-05-06 16:25 2.75790 101.71069 68 ft 8 kts 235°
2026-05-06 16:26 2.75758 101.71022 72 ft 8 kts 236°
2026-05-06 16:26 2.75727 101.70976 72 ft 8 kts 237°
2026-05-06 16:26 2.75707 101.70945 72 ft 8 kts 236°
2026-05-06 16:26 2.75692 101.70922 70 ft 8 kts 237°
2026-05-06 16:27 2.75662 101.70877 68 ft 8 kts 236°
2026-05-06 16:27 2.75633 101.70833 71 ft 7 kts 236°
2026-05-06 16:27 2.75592 101.70806 64 ft 5 kts 199°
2026-05-06 16:27 2.75579 101.70801 68 ft 2 kts 199°
2026-05-06 16:28 2.75565 101.70801 69 ft 2 kts 166°
2026-05-06 16:28 2.75550 101.70807 68 ft 2 kts 153°
2026-05-06 16:28 2.75537 101.70816 67 ft 1 kts 147°
2026-05-06 16:28 2.75532 101.70820 64 ft 1 kts 147°
2026-05-06 16:29 2.75527 101.70822 66 ft 1 kts 147°
2026-05-06 16:29 2.75526 101.70823 66 ft 0 kts 147°